[Iaude] MPEC A130: 2024 AF3 [a=1.76,e=0.44,i=0.5,H=26.9]
    mpec at marsden.cfa.harvard.edu 
    mpec at marsden.cfa.harvard.edu
       
    Thu Jan 11 17:44:21 EST 2024
    
    
  
M.P.E.C. 2024-A130                             Issued 2024 January 11, 22:42 UT
     The Minor Planet Electronic Circulars contain information on unusual
         minor planets, routine data on comets and natural satellites,
         and occasional editorial announcements.  They are published
    on behalf of Division F of the International Astronomical Union by the
          Minor Planet Center, Smithsonian Astrophysical Observatory,
                          Cambridge, MA 02138, U.S.A.
			  
             Prepared using the Tamkin Foundation Computer Network
                              MPC at CFA.HARVARD.EDU
            URL https://www.minorplanetcenter.net/    ISSN 1523-6714
                                    2024 AF3                                    
Observations:
     K24A03F  C2024 01 08.37937707 09 17.747+35 08 23.35         20.05GVEA130F51
     K24A03F  C2024 01 08.39081507 09 31.343+35 08 56.43         20.59GVEA130F51
     K24A03F* C2024 01 11.05016 08 24 30.48 +36 04 32.9          20.0 GoEA130K88
     K24A03F  C2024 01 11.05240 08 24 34.97 +36 04 30.7          19.8 GoEA130K88
     K24A03F KC2024 01 11.07321808 25 17.02 +36 04 02.9          19.8 RoEA130K88
     K24A03F KC2024 01 11.07662908 25 23.87 +36 03 58.4          20.1 RoEA130K88
     K24A03F KC2024 01 11.08004608 25 30.85 +36 03 53.7          19.8 RoEA130K88
     K24A03F KC2024 01 11.10481208 26 21.27 +36 03 16.4                oEA130K88
     K24A03F 1C2024 01 11.10733 08 26 29.11 +36 03 06.8          19.1 VXEA130033
     K24A03F 1C2024 01 11.10795 08 26 30.38 +36 03 06.1          19.2 VXEA130033
     K24A03F KC2024 01 11.10822308 26 28.26 +36 03 10.4          20.1 RoEA130K88
     K24A03F 1C2024 01 11.10953 08 26 34.15 +36 02 59.9          20.3 VXEA130033
     K24A03F KC2024 01 11.11249208 26 37.05 +36 03 03.7          19.9 RoEA130K88
     K24A03F KC2024 01 11.11675608 26 45.73 +36 02 55.6          20.0 RoEA130K88
     K24A03F hC2024 01 11.11679608 26 46.78 +36 03 18.2          20.3 GVEA130L01
     K24A03F KC2024 01 11.11827608 26 49.82 +36 03 16.1          20.1 GVEA130L01
     K24A03F KC2024 01 11.11975608 26 52.81 +36 03 13.6          20.0 GVEA130L01
     K24A03F KC2024 01 11.12104608 26 54.64 +36 02 49.2          19.7 RoEA130K88
     K24A03F hC2024 01 11.12123808 26 55.85 +36 03 11.1          20.5 GVEA130L01
     K24A03F KC2024 01 11.12272008 26 58.91 +36 03 08.6          20.1 GVEA130L01
     K24A03F 1C2024 01 11.19152 08 29 23.92 +36 00 40.2          18.9 VXEA130033
     K24A03F 1C2024 01 11.19203 08 29 25.02 +36 00 38.4          19.1 VXEA130033
     K24A03F 1C2024 01 11.19254 08 29 26.08 +36 00 37.6          19.2 VXEA130033
     K24A03F 1C2024 01 11.19321 08 29 27.48 +36 00 35.9          19.4 VXEA130033
     K24A03F KB2024 01 11.84295108 54 28.431+35 36 00.50         19.9 GXEA130B72
     K24A03F KB2024 01 11.85387008 54 53.788+35 35 33.31         19.2 GXEA130B72
     K24A03F KB2024 01 11.86480008 55 18.987+35 35 05.35         19.0 GXEA130B72
     K24A03F KB2024 01 11.87629408 55 49.07 +35 34 48.0          19.6 GXEA130958
     K24A03F KB2024 01 11.88042608 55 58.69 +35 34 36.3          20.1 GXEA130958
     K24A03F KB2024 01 11.88455708 56 08.23 +35 34 25.9          19.7 GXEA130958
Observer details:
033 Karl Schwarzschild Observatory, Tautenburg.  Observers S. Melnikov, C.
    Hogner, F. Ludwig, M. Hartmann, B. Stecklum.  Measurer B. Stecklum.
    1.34-m f/3 Schmidt + CCD.
958 Observatoire de Dax.  Observer P. Dupouy.  0.50-m f/4.5 Reflector + CMO.
B72 Soerth.  Observer B. Koch.  0.36-m f/7.6 reflector + CMO.
F51 Pan-STARRS 1, Haleakala.  Observers J. Herman, T. Lowe, P. Minguez, A.
    Schultz, I. Smith.  Measurers K. Chambers, T. de Boer, J. Fairlamb, H.
    Gao, M. Huber, C.-C. Lin, E. Magnier, Y. Ramanjooloo, R. Wainscoat, R.
    Weryk.  1.8-m Ritchey-Chretien + CCD.
K88 GINOP-KHK, Piszkesteto.  Observer K. Sarneczky.  0.60-m Schmidt + CCD.
L01 Visnjan Observatory, Tican.  Observers K. Korlevic, L. Poropat.  Measurer
    K. Korlevic.  1.0-m f/2.9 reflector + CCD.
Orbital elements:
2024 AF3                                                 Earth MOID = 0.0081 AU
Epoch 2023 Sept. 13.0 TT = JDT 2460200.5                Veres                   
M 300.91303              (2000.0)            P               Q                  
n   0.42181710     Peri.   82.04393     -0.69626630     -0.71775126             
a   1.7608401      Node    52.08660     +0.65510680     -0.63931664             
e   0.4423292      Incl.    0.49451     +0.29333995     -0.27587563             
P   2.34           H   26.93          G   0.15           U   9                  
Residuals in seconds of arc
240108 F51  0.0   0.1+    240111 K88  0.4-  0.2+    240111 033  0.2-  1.1+
240108 F51  0.0   0.0     240111 033  5.8+  3.6-    240111 033  0.0   0.3+
240111 K88  0.5-  0.3-    240111 K88  0.1+  0.5+    240111 033  0.2-  0.5+
240111 K88  0.7-  0.3+    240111 K88  0.9-  0.5-    240111 033  0.4-  0.1+
240111 K88  0.0   0.1-    240111 L01  0.0   0.6-    240111 B72  0.1+  0.2-
240111 K88  0.7-  0.2+    240111 L01  0.2+  0.3-    240111 B72  0.9+  0.3+
240111 K88  0.1-  0.4+    240111 L01  0.3-  0.3-    240111 B72  0.1+  0.6+
240111 K88  0.4-  0.7+    240111 K88  0.2+  0.3+    240111 958  0.7-  1.0+
240111 033  0.8-  0.0     240111 L01  0.2-  0.4-    240111 958  0.0   0.2-
240111 033  0.8-  0.2+    240111 L01  0.1+  0.4-    240111 958  0.2-  0.1-
Ephemeris:
2024 AF3                 a,e,i = 1.76, 0.44, 0                   q = 0.9820
Date    TT    R. A. (2000) Decl.     Delta      r    Elong.  Phase     V
2023 12 12    04 58 05.5 +24 25 43   0.1466  1.1310   176.2     3.3    23.4
...
2023 12 27    05 19 38.6 +27 35 15   0.07868 1.0599   165.7    13.2    22.3
...
2024 01 04    06 04 24.5 +31 42 24   0.04776 1.0296   165.6    13.7    21.2
...
2024 01 10    07 50 32.4 +36 02 11   0.02886 1.0113   164.7    14.8    20.1
2024 01 11    08 22 49.9 +36 06 33   0.02654 1.0086   161.2    18.3    20.0
2024 01 12    09 00 21.7 +35 29 52   0.02465 1.0061   156.1    23.3    20.0
...
2024 01 18    12 46 48.1 +14 21 01   0.02574 0.9933   111.0    67.6    21.3
...
2024 01 26    14 34 36.0 -04 55 16   0.04856 0.9834    87.3    89.8    23.5
...
2024 02 10    15 25 33.3 -13 44 17   0.09951 0.9880    87.9    86.4    24.9
M. P. C. Staff               (C) Copyright 2024 MPC           M.P.E.C. 2024-A130
    
    
More information about the Iaude
mailing list